Change the Weather History Date:

Thursday, October 24, 2013

  Actual Average Record
Temperature  
Mean Temperature 64 °F -  
Max Temperature 70 °F 77 °F 98 °F (1965)
Min Temperature 57 °F 56 °F 40 °F (1935)
Degree Days  
Heating Degree Days 2    
Growing Degree Days 14 (Base 50)    
Moisture  
Dew Point 54 °F    
Average Humidity 71    
Maximum Humidity 81    
Minimum Humidity 59    
Precipitation  
Precipitation 0.00 in - - ()
Sea Level Pressure  
Sea Level Pressure 30.00 in    
Wind  
Wind Speed 3 mph (WSW)    
Max Wind Speed 10 mph    
Max Gust Speed 17 mph    
Visibility 9 miles    
Events      
Averages and records for this station are not official NWS values.
T = Trace of Precipitation, MM = Missing Value Source: NWS Daily Summary

Daily Weather History Graph

Daily Weather History Graph

Search for Another Location

Airport or City:

Trip Planner

Search our weather history database for the weather conditions in past years. The results will help you decide how hot, cold, wet, or windy it might be!

Date:

Astronomy

Oct. 24, 2013 Rise Set
Actual Time 7:06 AM PDT 6:08 PM PDT
Civil Twilight 6:41 AM PDT 6:34 PM PDT
Nautical Twilight 6:11 AM PDT 7:03 PM PDT
Astronomical Twilight 5:42 AM PDT 7:32 PM PDT
Moon 10:42 PM PDT (10/24) 12:05 PM PDT (10/24)
Length of Visible Light 11h 53m
Length of Day
11h 02m
Waning Gibbous, 70% of the Moon is Illuminated
Oct 24
Waning Gibbous
Oct 26
Last Quarter
Nov 3
New
Nov 9
First Quarter
Nov 17
Full

Hourly Weather History & Observations

Time (PDT) Temp. Dew Point Humidity Pressure Visibility Wind Dir Wind Speed Gust Speed Precip Events Conditions
12:51 AM 63.0 °F 54.0 °F 72% 29.97 in 9.0 mi Calm Calm - N/A   Overcast
1:51 AM 63.0 °F 54.0 °F 72% 29.98 in 9.0 mi Calm Calm - N/A   Overcast
2:51 AM 63.0 °F 54.0 °F 72% 29.97 in 9.0 mi Calm Calm - N/A   Overcast
3:51 AM 62.1 °F 54.0 °F 75% 29.96 in 9.0 mi Calm Calm - N/A   Overcast
4:51 AM 63.0 °F 53.1 °F 70% 29.96 in 8.0 mi Calm Calm - N/A   Overcast
5:51 AM 62.1 °F 54.0 °F 75% 29.97 in 8.0 mi Calm Calm - N/A   Overcast
6:51 AM 62.1 °F 53.1 °F 72% 29.99 in 8.0 mi Calm Calm - N/A   Overcast
7:51 AM 63.0 °F 53.1 °F 70% 30.00 in 7.0 mi Calm Calm - N/A   Overcast
8:51 AM 64.0 °F 53.1 °F 67% 30.01 in 8.0 mi Calm Calm - N/A   Overcast
9:51 AM 64.9 °F 53.1 °F 65% 30.03 in 9.0 mi WSW 8.1 mph - N/A   Overcast
10:51 AM 64.9 °F 52.0 °F 63% 30.03 in 10.0 mi SW 5.8 mph - N/A   Mostly Cloudy
11:41 AM 66.2 °F 53.6 °F 64% 30.03 in 10.0 mi West 8.1 mph - N/A   Overcast
11:51 AM 66.0 °F 53.1 °F 63% 30.02 in 10.0 mi SW 8.1 mph - N/A   Mostly Cloudy
12:51 PM 68.0 °F 53.1 °F 59% 30.00 in 10.0 mi SSW 10.4 mph - N/A   Scattered Clouds
1:51 PM 66.9 °F 54.0 °F 63% 29.98 in 10.0 mi Variable 4.6 mph - N/A   Clear
2:51 PM 66.9 °F 54.0 °F 63% 29.98 in 10.0 mi WSW 8.1 mph - N/A   Clear
3:51 PM 66.0 °F 55.0 °F 68% 29.99 in 10.0 mi WSW 9.2 mph 17.3 mph N/A   Clear
4:51 PM 64.0 °F 55.0 °F 73% 29.98 in 9.0 mi West 8.1 mph - N/A   Clear
5:51 PM 63.0 °F 55.0 °F 75% 29.99 in 10.0 mi WSW 9.2 mph - N/A   Clear
6:51 PM 62.1 °F 55.0 °F 78% 30.00 in 10.0 mi Calm Calm - N/A   Clear
7:51 PM 62.1 °F 55.0 °F 78% 30.02 in 10.0 mi WSW 4.6 mph - N/A   Clear
8:51 PM 61.0 °F 55.0 °F 81% 30.04 in 10.0 mi West 4.6 mph - N/A   Partly Cloudy
9:51 PM 61.0 °F 55.0 °F 81% 30.05 in 10.0 mi WSW 3.5 mph - N/A   Clear
10:51 PM 59.0 °F 53.1 °F 81% 30.05 in 10.0 mi Calm Calm - N/A   Clear
11:51 PM 57.9 °F 52.0 °F 81% 30.05 in 10.0 mi NW 3.5 mph - N/A   Clear